CAPE
417 10 100 249 434 316 330 401 576 646 688 710 597 421 398 434 274 66 23 15 8 6 1 4 8 13 12 11 7 3 1 0 0 16 36 33 31 49 39 29 26 33 36
1036 896 947 943 470 205 198 293 429 650 679 667 571 569 481 310 59 7 13 12 6 0 1 2 3 1 2 3 7 7 4 1 8 11 11 14 22 20 12 7 2 34 38
1228 1234 968 564 403 337 231 551 818 713 592 610 567 423 333 168 28 74 74 51 33 24 17 10 7 6 4 2 0 0 0 2 4 4 3 1 7 7 0 0 7 14 7
1369 1267 992 741 698 571 476 372 846 1076 636 516 418 374 274 81 88 112 94 68 82 75 40 38 36 3 1 1 0 0 0 0 0 2 0 6 10 12 13 7 6 3 9
1391 1203 972 748 825 595 614 554 733 642 345 534 352 329 227 106 125 145 83 84 78 51 37 11 11 1 0 0 0 0 0 0 0 0 0 1 6 7 3 4 6 11 12
1075 1088 1003 699 638 894 933 1102 1091 1077 663 425 320 318 188 79 150 116 67 36 22 0 0 0 1 0 0 0 0 0 0 0 0 0 1 10 10 10 7 9 9 7 11
929 1002 898 829 816 944 917 971 986 1016 655 304 223 247 162 70 73 89 76 19 0 0 0 0 0 0 0 0 0 0 0 0 0 0 0 0 2 6 6 8 8 8 8
519 395 573 745 414 303 357 553 502 841 640 339 178 243 168 97 84 117 4 0 0 0 0 0 0 0 0 0 0 0 0 0 0 0 0 0 5 7 7 8 6 6 9
384 255 171 303 329 89 9 0 26 258 512 327 196 254 198 166 81 12 0 0 0 0 0 0 0 0 0 0 0 0 0 0 0 0 0 0 5 8 8 9 8 7 7
535 206 52 86 38 1 3 0 0 205 364 321 199 266 238 186 82 0 0 0 0 0 0 0 0 0 0 0 0 0 0 0 0 0 0 3 3 10 12 7 4 4 2
301 34 4 1 2 1 0 0 19 19 63 250 290 236 213 123 0 0 0 0 0 0 0 0 0 0 0 0 0 0 0 0 0 0 0 4 8 11 8 4 4 3 3
124 10 0 0 0 0 1 4 12 27 104 225 273 266 141 29 0 0 0 0 0 0 0 0 0 0 0 0 0 0 0 0 0 0 0 4 8 9 4 7 5 4 3
110 3 3 2 1 1 1 0 1 0 66 173 213 248 107 6 0 0 0 0 0 0 0 0 0 0 0 0 0 0 0 0 0 0 0 3 4 8 6 16 9 3 3
30 5 3 3 2 1 0 0 0 0 14 61 147 207 89 4 6 0 0 0 0 0 0 0 0 0 0 0 0 0 0 0 0 0 0 0 2 9 15 21 19 10 3
8 4 3 4 3 0 0 0 0 0 8 67 93 111 93 24 2 0 0 0 0 0 0 0 0 0 0 0 0 0 0 0 0 0 0 0 0 4 22 28 29 18 4
7 5 2 1 2 0 0 0 0 0 0 26 66 74 73 11 0 2 0 0 0 0 0 0 0 0 0 0 0 0 0 0 0 0 0 0 0 0 14 38 32 26 14
0 0 2 3 1 0 0 0 0 0 0 0 14 41 46 0 5 4 0 0 0 0 0 0 0 0 0 0 0 0 0 0 0 0 0 0 0 0 4 21 23 29 12
0 0 0 3 2 0 0 0 0 2 0 1 27 4 23 3 2 2 0 0 0 0 0 0 0 0 0 0 0 0 0 0 0 0 0 0 0 0 0 0 6 11 13
0 1 0 1 2 2 2 3 2 2 13 13 0 15 24 6 3 3 1 0 0 0 0 0 0 0 0 0 0 0 0 0 0 0 0 0 0 0 0 0 0 0 0
1 1 0 0 2 2 0 0 2 8 12 2 8 14 21 18 9 14 5 2 4 0 0 0 0 0 0 0 0 0 0 0 0 0 0 0 0 0 0 0 0 0 0
0 1 0 1 1 0 0 0 20 3 0 6 21 19 26 26 23 39 32 29 14 0 1 0 0 0 0 0 0 0 0 0 0 0 0 0 0 0 0 0 0 0 0
0 0 0 1 1 0 0 0 0 0 2 3 19 45 54 72 105 110 66 105 65 0 0 0 0 0 0 0 0 0 0 0 0 0 0 0 0 0 0 0 0 0 0
0 0 3 0 0 1 0 0 0 1 1 5 0 7 19 29 14 45 59 67 46 3 10 0 0 0 0 0 0 0 0 0 0 0 0 0 0 0 0 0 0 0 0
0 0 0 0 0 0 0 0 0 0 0 0 0 0 0 1 0 0 5 32 44 28 11 1 0 0 0 0 0 0 0 0 0 0 0 0 0 0 0 0 0 0 0
0 0 0 0 0 0 0 0 0 0 0 0 0 0 0 0 0 0 0 0 0 0 15 10 0 0 0 0 0 0 0 0 0 0 0 0 0 0 0 0 0 0 0
0 0 0 0 0 0 0 0 0 0 0 0 0 0 0 0 0 0 0 0 0 0 0 0 0 0 0 0 0 0 0 0 0 0 0 0 0 0 0 0 0 0 0
CIN
-146 -358 -328 -197 -76 -96 -145 -210 -138 -184 -66 -41 -44 -57 -59 -36 -25 -129 -212 -276 -293 -307 -1 0 -1 -1 -1 0 0 0 0 0 0 -3 -5 -3 0 0 0 0 0 0 0
-53 -78 -44 -52 -87 -145 -145 -162 -147 -124 -128 -42 -27 -18 -22 -35 -81 -157 -195 -240 -296 0 -1 -1 -1 0 0 -1 0 0 0 -2 -1 -1 -1 0 -1 0 0 0 0 0 0
-39 -32 -39 -79 -99 -107 -137 -109 -55 -87 -73 -28 -11 -23 -28 -27 -77 -83 -106 -136 -174 -235 -344 -27 -1 -1 0 0 0 0 0 -4 -3 -2 0 -1 -1 0 0 0 -1 -4 -7
-9 -26 -40 -44 -61 -80 -94 -93 -32 -4 -79 -102 -84 -20 -27 -24 -17 -35 -81 -120 -120 -120 -231 -230 -221 0 0 0 0 0 0 0 0 -4 0 -3 -4 -3 -1 -4 -1 -2 -1
-23 -39 -27 -42 -36 -71 -67 -81 -46 -70 -112 -25 -77 -58 -19 -8 -13 -11 -93 -100 -113 -175 -207 -218 -243 -84 0 0 0 0 0 0 0 0 -2 -1 -3 -2 -1 -1 0 -1 -1
-93 -19 -13 -39 -43 -19 -2 0 0 0 -19 -35 -67 -40 -2 -4 -3 -5 -70 -124 -184 0 0 -2 -28 0 0 0 0 0 0 0 0 0 -4 -2 -4 -1 -1 0 0 -1 -1
-77 -25 -32 -35 -35 -6 -12 -1 0 0 -5 -61 -78 -1 -1 -3 -16 -2 -42 -113 0 0 0 0 0 0 0 0 0 0 0 0 0 0 0 0 -2 0 -1 -1 0 -1 0
-120 -134 -58 -29 -55 -61 -76 -5 -24 -1 -6 -14 -125 -2 0 -2 -12 -4 -27 0 0 0 0 0 0 0 0 0 0 0 0 0 0 0 0 0 0 -1 -1 0 0 0 0
-97 -94 -107 -76 -41 -23 -89 0 -90 -6 -4 -17 -62 -2 -1 -1 -14 -58 0 0 0 0 0 0 0 0 0 0 0 0 0 0 0 0 0 0 0 -1 -1 0 -1 0 -1
-37 -34 -38 -45 -69 -8 -34 0 0 -5 -13 -19 -24 -16 -7 -8 -30 0 0 0 0 0 0 0 0 0 0 0 0 0 0 0 0 0 0 -1 -1 -1 -1 -1 0 0 0
-19 -158 -129 0 -80 0 0 0 -1 -1 -9 -11 -6 -36 -22 -37 0 0 0 0 0 0 0 0 0 0 0 0 0 0 0 0 0 0 0 -1 -1 -1 -1 0 0 0 0
-26 -188 0 0 0 0 0 -1 -4 -19 -10 -14 -28 -16 -56 -89 0 0 0 0 0 0 0 0 0 0 0 0 0 0 0 0 0 0 0 -1 0 -1 0 -1 -1 -1 0
-15 0 0 0 0 0 0 0 -47 0 -27 -14 -64 -35 -83 -129 0 0 0 0 0 0 0 0 0 0 0 0 0 0 0 0 0 0 0 -2 -1 -1 0 0 0 -2 -1
-40 -16 0 0 0 0 0 0 0 0 -39 -45 -79 -68 -90 -76 -195 0 0 0 0 0 0 0 0 0 0 0 0 0 0 0 0 0 0 0 -1 0 -1 0 0 -2 -1
-29 -65 0 0 0 0 0 0 0 0 -42 -66 -75 -44 -99 -150 -178 0 0 0 0 0 0 0 0 0 0 0 0 0 0 0 0 0 0 0 0 -1 -1 0 0 0 0
-35 -20 0 0 0 0 0 0 0 0 0 -46 -40 -60 -122 -191 0 -322 0 0 0 0 0 0 0 0 0 0 0 0 0 0 0 0 0 0 0 0 -1 0 0 0 -1
0 0 0 0 0 0 0 0 0 0 0 -3 -64 -85 -107 -8 -259 -308 0 0 0 0 0 0 0 0 0 0 0 0 0 0 0 0 0 0 0 0 -2 -2 -1 0 0
0 0 0 0 0 0 0 0 0 -16 -10 -32 -84 -117 -136 -220 -253 -272 0 0 0 0 0 0 0 0 0 0 0 0 0 0 0 0 0 0 0 0 0 0 -3 -3 -1
0 0 0 0 0 0 -2 -3 -4 -35 -40 -47 0 -130 -163 -190 -214 -200 -212 0 0 0 0 0 0 0 0 0 0 0 0 0 0 0 0 0 0 0 0 0 0 0 0
0 0 0 0 0 0 0 0 -11 -42 -83 -28 -112 -151 -170 -164 -154 -156 -177 -168 -234 0 0 0 0 0 0 0 0 0 0 0 0 0 0 0 0 0 0 0 0 0 0
0 0 0 0 0 0 0 -9 -26 -21 0 -102 -128 -151 -131 -87 -77 -106 -125 -143 -207 -14 -57 0 0 0 0 0 0 0 0 0 0 0 0 0 0 0 0 0 0 0 0
0 0 0 0 0 0 0 0 0 0 -77 -66 -113 -98 -70 -72 -60 -69 -96 -82 -146 0 -95 0 0 0 0 0 0 0 0 0 0 0 0 0 0 0 0 0 0 0 0
0 -3 -3 0 0 0 0 0 0 -36 -27 -67 0 -97 -91 -53 -55 -67 -54 -84 -92 -79 -124 0 0 0 0 0 0 0 0 0 0 0 0 0 0 0 0 0 0 0 0
0 -1 0 0 0 0 0 0 0 0 0 0 0 0 0 -40 -4 0 -102 -84 -85 -97 -109 -45 0 0 0 0 0 0 0 0 0 0 0 0 0 0 0 0 0 0 0
0 0 0 0 0 0 0 0 0 0 0 0 0 0 0 0 0 0 0 0 0 -9 -145 -145 0 0 0 0 0 0 0 0 0 0 0 0 0 0 0 0 0 0 0
0 0 0 0 0 0 0 0 0 0 0 0 0 0 0 0 0 0 0 0 0 0 0 0 0 0 0 0 0 0 0 0 0 0 0 0 0 0 0 0 0 0 0
Wind_Speed
10 8 6 4 4 3 4 8 12 14 12 8 8 6 8 9 10 14 16 18 19 20 21 22 22 23 23 23 23 24 24 24 25 26 26 26 27 26 26 25 24 24 25
8 5 6 5 7 4 4 8 10 12 13 9 7 6 6 9 11 15 17 19 20 22 22 22 22 22 22 22 23 23 23 24 24 25 25 25 26 25 24 24 23 24 24
5 5 4 6 7 7 6 8 12 14 11 10 7 5 6 10 13 16 18 20 21 22 23 23 23 22 22 22 23 22 23 23 23 24 24 24 24 23 22 22 22 21 21
3 5 6 7 7 5 7 9 9 8 9 9 8 6 8 10 13 16 18 19 20 21 21 20 19 19 21 21 22 22 22 22 22 22 22 23 23 23 22 24 24 24 24
3 5 10 9 7 6 7 9 10 11 9 8 9 8 9 12 15 16 17 19 20 19 18 17 17 19 20 20 21 21 21 21 21 22 21 21 22 21 22 22 23 23 24
3 4 7 9 10 8 8 8 9 8 9 11 10 10 10 11 14 15 17 19 19 19 19 18 19 20 19 18 19 20 20 20 21 20 19 20 20 20 21 21 23 23 24
5 4 7 8 9 9 7 8 8 10 12 12 12 11 11 11 14 15 15 17 18 17 17 17 18 18 19 19 19 19 20 20 19 19 18 18 19 20 21 22 23 24 25
10 9 9 9 10 8 6 7 8 9 12 12 15 12 11 11 12 13 15 16 16 15 16 19 19 20 19 18 18 18 19 18 17 17 17 17 19 20 22 22 23 24 25
12 13 14 11 10 7 9 11 11 11 15 13 15 15 13 11 10 12 14 15 15 15 18 19 19 19 18 18 17 18 18 17 16 15 15 15 19 20 21 22 22 23 24
10 12 8 12 15 10 19 14 15 15 16 15 17 17 13 11 10 11 14 15 15 15 18 19 19 20 20 17 15 15 15 14 14 14 14 16 18 19 20 21 22 22 23
10 8 4 9 13 8 5 5 17 19 18 18 20 17 15 11 10 11 12 13 13 13 14 16 17 18 17 15 13 11 12 11 12 13 13 16 17 18 19 20 20 21 21
6 6 6 14 11 9 7 10 15 20 20 20 21 18 16 13 10 10 12 12 12 11 11 15 16 15 14 12 8 8 8 10 11 12 13 15 17 18 18 18 19 20 20
4 8 9 12 17 18 16 17 18 20 25 21 20 21 16 15 11 9 9 9 8 8 7 9 13 13 12 11 5 5 6 8 10 12 14 15 16 16 16 17 18 18 19
2 6 10 13 18 18 22 11 18 23 20 26 22 19 21 15 13 9 9 9 8 9 8 8 10 10 9 6 4 3 4 6 9 11 13 14 15 15 15 16 16 17 17
3 5 8 14 14 17 22 18 15 19 18 18 20 21 18 17 13 9 7 9 5 6 10 7 7 7 8 4 2 3 5 7 9 11 13 14 14 14 14 14 14 15 15
2 4 5 10 11 19 22 35 38 43 44 32 31 33 22 16 13 9 6 5 4 3 5 6 5 5 5 3 6 7 6 8 9 11 12 13 14 13 13 12 12 12 13
2 4 5 9 12 13 19 13 20 43 38 42 41 37 16 21 13 11 7 5 3 3 3 4 4 3 3 6 8 9 8 9 10 11 12 13 13 13 12 10 11 10 11
4 3 8 4 10 7 11 12 38 42 41 46 42 23 18 15 12 11 7 5 3 1 1 3 4 4 6 8 9 10 8 10 10 11 12 12 12 11 11 10 10 10 9
9 4 4 10 11 11 11 11 25 23 14 21 15 17 15 14 12 9 6 5 3 3 1 2 5 5 8 12 13 11 11 12 11 12 11 11 12 11 11 10 9 8 9
11 8 4 13 11 13 11 12 14 14 13 14 17 16 15 14 11 9 6 5 3 3 4 5 6 15 19 16 15 14 16 16 13 12 10 11 11 11 11 12 11 9 8
13 11 6 5 13 12 11 13 13 17 16 14 15 15 14 13 13 11 7 7 6 4 5 11 16 17 19 13 15 19 21 21 19 14 14 12 13 12 12 11 9 9 9
14 14 16 14 10 11 12 15 11 16 19 14 20 14 13 12 13 11 10 9 14 14 19 20 17 18 18 12 16 18 20 22 17 12 13 13 12 12 11 12 9 9 9
14 16 20 25 21 10 9 14 12 16 13 19 22 15 16 14 17 16 16 13 12 28 23 12 5 7 10 10 15 17 19 19 19 19 16 15 13 13 13 14 12 10 10
15 17 20 22 27 26 24 21 20 14 18 20 23 19 16 14 14 18 19 24 29 28 26 18 14 12 13 10 17 18 23 21 20 24 20 18 14 15 13 15 13 12 13
15 16 18 19 20 21 25 22 26 32 36 21 23 42 42 43 27 42 38 30 33 26 26 23 19 15 15 19 16 22 23 22 21 21 25 23 21 18 15 14 14 15 17
14 15 16 19 21 22 23 23 23 30 32 33 42 43 43 43 44 41 36 37 36 33 31 30 28 20 13 16 17 17 17 19 18 22 23 23 23 23 19 18 18 18 18
Wind_Direction
257 212 178 198 196 170 110 93 103 107 131 148 132 138 107 93 87 87 87 88 86 85 82 80 78 76 73 69 65 62 59 58 56 56 56 54 54 52 51 49 44 43 44
237 210 245 151 150 198 141 109 106 115 122 137 167 150 118 101 96 94 91 91 90 88 86 83 81 77 74 71 67 64 62 60 58 58 56 56 54 50 48 47 42 41 43
233 231 196 170 138 139 129 112 114 113 118 155 172 160 125 108 103 101 98 95 91 90 88 86 81 74 72 71 69 65 62 60 59 58 57 56 53 51 44 42 40 36 34
233 140 158 162 157 148 139 131 125 119 126 150 163 164 133 120 112 106 101 97 94 91 89 87 79 69 73 70 69 68 65 62 58 57 56 56 54 52 49 49 47 46 43
138 165 150 146 152 153 150 136 132 124 134 145 158 163 137 124 116 110 104 100 97 92 86 83 76 80 73 70 69 68 65 61 59 60 56 55 53 49 49 42 44 42 42
286 192 169 157 157 162 151 156 140 137 130 147 163 153 143 132 122 114 106 101 97 93 89 86 85 82 75 72 69 67 65 64 64 60 56 56 51 48 46 44 44 42 41
273 221 202 178 172 171 164 163 153 142 137 150 166 164 152 142 126 117 108 102 95 92 91 91 90 83 79 75 72 69 67 66 65 60 56 51 51 50 49 47 45 45 46
268 261 205 195 178 188 204 188 161 156 154 148 154 174 164 151 132 121 111 104 96 89 92 101 96 88 82 79 75 71 68 65 61 59 53 49 53 52 50 49 47 47 47
281 259 253 231 241 225 240 202 179 169 162 159 169 167 171 162 143 125 113 104 94 89 94 100 97 90 84 81 76 71 69 65 59 55 49 45 52 53 53 52 49 47 46
329 280 246 263 259 267 260 217 202 182 173 167 171 182 165 174 151 128 115 107 98 91 95 98 97 93 90 81 73 67 65 60 54 51 47 48 51 52 52 50 49 48 46
344 24 311 289 265 258 294 246 199 194 192 167 183 176 179 176 159 130 115 110 99 91 88 92 96 92 86 80 71 61 58 52 48 44 40 52 51 50 51 46 45 44 44
20 65 51 88 80 100 75 161 209 216 197 189 186 184 187 184 180 135 117 110 101 91 85 86 92 88 83 73 57 49 44 47 39 38 41 47 51 51 47 45 44 43 44
35 105 99 80 104 106 108 118 154 201 205 198 185 194 182 192 179 145 120 111 103 90 79 76 81 80 79 74 50 38 36 34 31 33 45 49 46 46 43 47 46 45 46
34 76 105 108 112 113 120 115 150 198 205 207 195 187 197 190 194 182 129 112 108 89 82 72 72 75 71 59 48 21 6 14 21 28 34 41 43 40 43 47 44 44 44
317 78 99 121 120 122 125 121 186 195 210 206 195 197 188 202 198 188 154 120 112 89 88 67 59 64 69 44 315 348 337 355 13 18 24 34 35 39 47 45 45 45 46
50 91 122 126 126 131 135 176 190 183 187 205 204 206 204 200 199 175 171 154 128 75 65 68 58 60 60 333 280 286 309 335 353 8 16 20 24 32 38 40 40 40 39
78 318 143 136 136 135 138 153 151 185 198 198 201 207 191 212 203 150 151 177 181 76 64 38 38 24 342 281 279 281 302 324 341 3 11 22 21 18 18 31 29 34 36
34 291 271 203 148 167 165 171 170 175 169 178 201 220 206 198 171 156 165 175 200 144 52 19 15 318 294 284 286 285 309 319 339 356 7 14 20 21 14 13 15 21 28
73 22 290 251 178 174 198 194 217 210 184 220 209 209 192 193 180 170 175 190 180 172 218 334 319 306 284 276 279 291 300 313 328 340 356 360 357 2 4 2 4 10 13
85 75 3 265 205 184 200 213 218 185 201 211 214 207 196 183 193 222 207 205 203 199 271 283 293 267 259 269 280 291 293 305 321 332 344 347 348 353 351 350 351 355 0
72 72 53 246 229 200 196 206 196 195 219 215 211 205 187 198 231 230 212 238 241 227 259 269 265 265 269 282 289 291 294 301 309 322 327 328 327 334 338 347 352 350 351
83 81 111 138 199 223 209 220 213 216 225 225 231 203 196 208 235 235 243 249 254 261 260 259 267 273 277 284 294 303 305 307 313 312 321 322 317 324 325 329 338 338 340
87 103 123 144 137 153 194 228 236 232 213 230 235 223 225 220 250 256 256 259 256 246 261 276 246 273 283 287 293 303 311 315 326 324 319 318 312 313 313 315 317 320 322
116 116 123 132 144 145 149 153 168 198 195 229 234 242 237 216 234 250 253 250 247 253 264 279 280 278 285 275 291 293 299 311 316 322 325 330 319 312 310 311 309 308 312
126 123 125 126 134 142 156 149 157 169 179 179 233 219 211 213 188 217 232 250 250 267 273 280 282 277 279 285 288 294 295 305 311 312 316 321 325 319 316 312 311 311 314
133 132 130 138 146 149 152 151 156 167 171 174 192 200 206 215 223 240 249 251 257 266 272 275 278 282 269 277 284 285 293 302 303 310 311 318 315 322 324 322 316 316 318